GFSNGP_con_lsi_099.txt.gz
Lid_Strength_Index
12 11 12 12 12 12 13 13 15 14 13 11 10 9 8 7 7 7 7 6 6 6 5 5 5 5 5 5 5 4 4 4 2 2 2 3 2 2 2 3 3 3 3 3
14 12 12 13 11 12 12 11 12 12 12 9 8 8 8 8 7 7 7 7 7 8 8 5 5 5 5 5 4 4 5 4 4 3 2 2 2 2 2 3 3 3 3 3
16 13 13 15 12 11 13 12 12 15 12 9 9 9 9 8 7 7 7 8 8 8 9 9 8 6 5 4 3 3 4 4 4 4 4 2 2 2 2 2 3 3 3 3
16 14 20 12 10 10 12 11 10 10 10 9 9 8 7 6 7 7 8 8 9 9 9 9 8 8 7 4 3 4 4 4 3 3 4 4 2 2 2 2 3 3 3 4
17 18 14 13 11 12 13 13 9 10 9 8 8 7 8 8 7 9 9 8 8 9 9 9 8 8 8 8 7 4 5 4 3 3 3 3 4 3 2 2 3 3 3 3
15 18 20 14 10 8 9 16 9 9 9 9 8 12 10 8 9 9 10 10 9 10 11 11 10 9 9 9 10 10 9 9 8 6 3 3 3 3 3 3 3 3 4 8
16 17 14 10 9 8 16 14 8 8 8 8 9 8 8 8 10 10 11 11 11 12 12 12 11 10 12 12 12 11 10 11 11 11 9 8 3 3 3 4 10 12 14 15
15 17 18 8 9 12 10 8 8 8 8 8 8 8 9 10 11 12 13 13 12 12 13 13 13 12 14 14 13 13 13 13 13 13 12 12 12 11 12 12 14 16 16 17
13 14 9 8 9 7 7 9 9 9 9 9 11 10 10 11 12 13 14 14 13 13 13 13 13 13 14 14 14 14 14 14 14 14 14 15 14 15 16 15 16 16 16 17
12 10 9 8 8 9 8 9 9 10 11 11 12 11 12 13 14 15 15 15 15 15 15 14 13 13 14 14 14 15 15 15 16 16 16 15 15 15 16 17 18 18 18 18
11 11 10 10 10 10 9 10 11 11 12 12 12 13 13 14 15 16 16 15 15 15 16 15 14 14 14 14 14 15 16 16 16 16 16 16 16 16 17 16 15 17 17 18
15 11 10 11 10 10 11 12 12 12 13 13 13 14 14 15 15 16 16 16 16 16 16 16 15 15 15 15 16 16 16 16 16 16 16 16 16 17 15 15 15 15 15 17
12 11 10 11 11 11 13 13 14 14 14 14 15 15 15 16 16 16 16 16 16 17 16 17 16 16 16 16 17 18 19 18 17 17 17 17 17 17 19 18 16 16 15 15
11 9 11 12 13 12 12 13 13 15 16 16 16 16 16 16 17 17 17 17 16 17 17 17 17 16 16 16 17 19 19 19 18 18 18 19 19 20 20 21 22 21 18 17
12 11 11 11 12 13 13 13 15 16 16 17 16 17 17 18 18 17 16 16 16 16 17 17 16 16 14 15 15 16 17 18 18 18 18 19 19 20 20 21 21 21 22 22
13 13 13 13 14 14 15 15 16 16 16 17 17 17 18 18 18 18 18 18 18 19 18 17 17 16 15 16 16 17 18 18 19 19 19 19 19 19 20 20 21 22 22 23
15 16 16 15 16 16 17 17 17 17 17 17 17 18 18 19 19 20 20 19 19 20 18 18 18 17 16 16 17 17 18 18 19 19 20 20 20 20 21 21 22 23 23 23
16 17 16 16 16 17 17 17 18 18 19 19 20 22 22 22 22 22 21 21 21 20 20 18 18 18 18 18 17 18 18 18 19 19 20 20 20 20 21 22 23 24 25 25
17 18 18 17 17 17 18 19 19 20 21 22 23 24 23 23 23 23 22 23 22 22 21 19 17 19 18 18 18 18 19 19 19 20 20 20 21 21 22 23 24 25 25 25
19 19 20 21 21 21 22 22 22 23 23 23 24 24 24 24 23 23 23 23 22 21 20 19 19 19 19 19 18 19 19 20 21 21 21 22 23 23 24 24 24 25 26 27
22 23 23 23 23 23 24 24 24 24 24 24 25 25 25 24 23 24 23 24 22 21 20 21 20 20 20 20 20 21 21 22 23 23 23 24 24 24 24 25 25 25 26 27
25 24 25 24 23 23 23 23 23 23 24 24 25 25 24 24 24 23 22 23 21 21 21 22 21 22 22 22 22 22 22 22 23 23 23 24 25 26 26 26 27 27 28 29
24 23 23 24 24 23 23 23 24 24 25 25 25 25 24 24 23 24 25 22 21 22 22 23 23 24 24 23 24 24 24 24 24 25 25 25 26 27 27 28 28 29 30 30
23 22 24 23 23 22 24 23 22 22 23 22 23 24 23 24 23 21 21 23 24 24 23 23 23 24 24 25 25 25 25 25 26 26 26 27 27 28 28 29 30 31 31 31
23 24 24 24 22 22 22 22 22 21 21 21 21 21 20 20 23 22 23 23 22 23 24 24 24 24 24 25 25 25 25 26 27 27 28 28 30 32 33 31 33 32 34 34
20 21 22 21 20 19 19 20 21 22 22 23 22 23 22 21 21 22 22 23 23 24 25 26 26 26 26 26 27 27 27 26 28 28 29 31 31 32 32 33 34 34 35 37
17 17 17 17 17 17 17 18 19 20 21 24 23 22 21 22 22 22 24 26 26 26 27 27 27 26 27 27 27 29 28 29 29 31 35 35 36 37 37 37 37 38 37 37

GFSNGP_con_lsi_102.txt.gz
Lid_Strength_Index
13 13 12 12 13 13 14 13 15 14 14 13 11 10 9 8 7 7 7 7 8 8 8 5 5 4 4 4 4 4 4 4 4 3 3 4 4 4 4 4 4 3 3 3
15 12 12 13 12 12 12 12 12 12 13 10 9 8 8 8 7 8 8 9 9 9 9 9 8 5 5 5 4 3 4 4 4 4 4 3 3 4 4 3 3 3 3 3
16 13 13 16 13 12 13 12 13 15 12 9 10 9 9 8 8 9 8 9 10 10 10 10 9 8 5 4 4 4 3 3 3 4 4 4 4 3 3 3 3 3 3 3
16 14 21 14 10 10 12 11 10 10 10 9 9 8 8 8 9 9 9 11 11 11 12 11 10 10 8 4 3 3 3 3 3 3 3 3 4 4 4 3 3 3 3 3
17 18 15 13 11 12 13 13 9 10 9 8 8 7 8 8 9 10 11 11 11 12 12 12 11 10 10 9 8 8 7 6 6 4 3 3 3 3 3 4 4 3 3 4
15 18 20 13 10 8 9 16 9 9 9 9 9 12 10 9 10 11 11 11 12 12 13 13 12 11 12 12 12 12 11 11 10 9 7 5 3 3 3 3 4 4 5 5
16 17 14 10 9 8 17 15 9 8 8 8 9 8 8 9 10 11 11 12 12 12 13 13 13 12 14 14 14 13 13 13 13 13 12 10 9 5 4 4 7 12 15 15
15 17 18 8 9 13 11 9 9 9 9 9 9 9 9 10 12 13 13 13 13 13 14 14 13 13 15 15 14 14 14 14 14 14 13 13 13 13 13 13 15 15 16 16
13 13 9 9 9 9 9 10 10 11 11 10 11 11 12 12 13 14 14 15 14 14 14 15 14 15 15 15 15 15 15 15 15 14 14 14 14 14 14 14 16 17 18 18
12 10 10 9 9 9 10 11 11 11 11 11 12 13 13 14 14 15 15 15 15 15 16 15 15 15 15 15 14 15 16 16 15 15 15 15 15 14 15 16 17 17 18 18
11 10 10 10 9 10 11 11 11 12 13 13 13 14 14 15 15 15 16 16 16 16 16 16 15 16 16 16 15 16 16 15 15 15 15 16 16 16 16 16 16 17 17 17
14 12 11 12 11 11 13 13 14 14 14 15 14 15 15 16 15 16 16 16 16 16 16 16 15 16 17 17 17 17 16 17 16 16 16 16 17 17 15 15 15 15 15 16
12 10 11 11 11 12 13 14 15 16 16 16 16 16 16 16 16 15 16 16 16 16 16 16 16 17 17 17 18 19 19 18 18 18 18 18 17 18 19 17 15 15 15 15
11 10 12 12 13 12 13 14 14 16 16 17 17 17 16 17 17 17 17 16 16 16 16 17 17 17 16 17 18 19 20 19 19 19 19 20 20 20 21 22 23 22 17 17
13 11 11 12 12 14 13 14 16 17 17 17 17 18 18 18 19 19 18 17 17 17 17 17 17 17 16 16 17 17 18 18 19 19 19 19 19 19 20 21 22 22 21 21
13 13 13 14 14 15 15 16 16 16 17 17 18 18 18 19 18 19 19 19 19 20 19 18 18 17 16 16 17 18 18 18 19 19 20 20 20 21 22 23 23 24 24 23
14 16 16 15 16 17 17 17 17 17 18 18 19 19 19 19 20 20 20 20 20 20 19 19 19 18 17 17 17 18 18 19 19 19 20 20 21 21 22 23 24 25 25 25
16 16 16 16 16 16 17 17 18 19 20 20 21 22 23 23 22 22 22 21 21 21 21 20 19 18 18 18 18 18 19 19 19 20 20 21 21 22 23 23 24 25 25 25
17 18 18 18 17 18 19 19 20 20 21 22 23 25 25 25 24 24 23 23 23 24 23 20 18 19 19 18 18 19 19 20 20 21 21 22 23 23 24 25 25 25 25 26
19 19 20 21 21 21 22 22 23 24 23 24 24 24 25 25 24 25 24 24 24 22 21 20 20 20 19 19 19 20 20 21 21 22 23 23 24 25 25 25 26 27 27 27
23 23 23 23 24 24 24 26 25 25 25 25 25 26 26 25 24 24 24 24 23 21 21 21 21 20 20 20 20 21 22 23 24 24 25 25 25 25 26 26 26 27 27 28
25 25 25 25 24 24 24 26 25 25 25 25 25 25 25 25 24 24 23 23 22 22 22 22 22 22 22 22 22 23 23 24 24 25 25 26 27 27 27 27 28 28 28 29
25 24 24 25 25 24 24 25 26 26 26 26 26 26 25 23 23 24 25 22 21 22 22 23 24 23 24 24 25 25 26 26 27 27 27 27 28 29 29 29 29 29 30 29
22 22 23 24 23 22 24 23 22 23 24 24 26 27 24 26 24 22 22 23 24 24 24 24 24 24 25 25 25 26 26 26 26 27 27 28 29 29 29 30 31 31 32 33
21 22 22 23 22 23 22 22 22 22 22 22 21 21 21 21 26 24 25 24 23 25 25 26 25 26 26 26 26 27 28 28 29 28 29 29 30 32 31 32 34 34 35 35
20 20 20 19 20 19 19 20 22 22 22 23 23 27 25 24 23 23 24 25 25 25 26 27 27 27 27 27 28 29 28 28 28 29 30 31 30 31 34 34 35 35 36 38
18 17 17 18 17 18 18 18 20 22 23 26 25 24 25 26 25 24 27 28 28 28 28 27 27 26 27 28 27 29 29 29 30 31 33 33 33 35 36 37 38 39 39 38

GFSNGP_con_lsi_105.txt.gz
Lid_Strength_Index
12 12 12 12 12 12 12 12 14 12 13 10 10 9 8 7 7 7 6 7 8 10 10 9 8 5 4 3 3 3 4 5 5 3 2 2 2 2 2 2 2 1 1 1
14 12 12 13 11 11 12 11 12 11 12 9 8 7 8 8 7 8 8 9 9 11 12 11 10 9 4 4 3 3 4 4 4 4 2 2 2 2 2 2 2 2 2 2
15 13 12 14 12 11 12 11 12 13 11 9 9 9 8 9 8 9 10 11 11 12 13 12 11 10 7 4 3 3 3 3 4 4 4 3 2 2 2 2 2 2 2 2
15 14 19 13 9 9 11 11 10 10 10 9 9 8 8 9 9 10 11 11 12 13 13 13 12 11 10 5 3 3 3 3 3 4 4 4 4 3 3 2 2 2 2 2
16 16 13 12 11 12 12 13 9 10 9 8 7 7 10 9 10 11 11 12 12 13 14 14 13 12 12 12 11 10 10 9 8 7 5 3 4 4 3 3 3 4 3 3
15 17 19 13 10 8 9 15 8 8 9 8 8 12 11 10 11 11 12 12 12 13 14 15 14 13 14 14 14 14 13 12 12 11 10 10 9 4 3 3 3 4 8 12
14 15 13 10 8 7 15 14 8 8 8 8 10 10 10 10 11 12 12 13 12 13 15 15 14 14 15 15 16 15 14 14 14 13 13 12 11 11 10 5 12 14 16 16
14 16 17 8 9 12 10 9 9 9 9 9 9 10 10 11 12 13 14 14 13 14 15 15 14 15 16 16 15 14 14 14 15 14 14 13 13 13 13 13 15 16 16 17
13 13 9 8 9 9 8 10 10 10 10 10 11 12 13 13 14 14 15 15 14 14 15 15 15 15 16 16 15 15 15 15 15 15 15 14 14 14 14 14 15 17 16 17
12 10 10 10 10 9 10 11 11 11 11 10 12 13 14 14 15 15 15 16 15 15 16 16 16 16 16 15 15 15 15 16 16 16 16 15 15 15 15 15 16 16 16 17
12 11 10 10 10 10 11 11 12 12 13 13 13 14 15 15 15 16 16 16 16 16 16 17 17 16 16 16 15 15 15 15 15 15 16 16 16 15 16 15 15 16 16 17
14 12 11 12 11 11 13 14 13 13 14 15 14 15 15 16 16 16 16 16 17 17 16 16 16 16 16 16 16 15 16 16 16 16 16 16 16 17 15 15 15 15 15 16
12 11 11 12 12 12 14 14 15 15 15 16 15 15 15 16 16 16 16 16 16 16 16 16 16 17 16 16 16 17 17 17 17 17 17 18 17 18 19 17 15 15 15 15
11 10 13 12 13 13 14 14 14 15 16 16 16 16 16 16 17 17 17 16 16 16 16 16 16 17 16 16 17 18 18 18 17 18 18 18 18 18 18 19 19 18 16 15
12 11 12 12 13 14 13 14 15 16 16 17 16 17 17 18 18 18 17 17 17 17 17 17 17 17 16 16 17 17 17 17 17 17 17 17 17 18 18 18 18 18 18 19
13 13 13 14 15 15 15 15 16 16 16 17 17 18 18 18 18 18 18 18 19 19 18 18 18 17 16 16 16 17 17 17 16 16 17 17 17 18 18 19 19 20 20 20
14 15 15 15 16 16 17 16 16 17 18 18 18 18 18 19 19 19 19 19 19 20 19 19 18 18 17 17 17 17 17 17 18 17 17 18 18 19 20 20 21 21 22 22
15 15 15 15 16 16 17 17 18 18 19 19 20 21 22 22 22 22 21 20 20 20 20 19 18 18 18 17 17 17 17 17 17 18 18 19 19 19 20 21 21 22 22 23
17 17 17 17 17 17 18 19 19 20 21 22 23 23 23 23 23 23 22 22 22 22 21 19 18 19 18 18 17 17 18 18 18 19 19 20 20 21 21 21 22 22 22 23
18 18 19 20 20 20 21 21 22 22 22 22 23 24 24 24 23 23 22 23 22 22 21 20 19 19 19 19 19 18 18 19 19 20 20 20 21 22 22 23 23 23 23 24
22 21 22 22 23 23 23 23 23 24 23 23 23 24 24 23 23 22 22 22 22 21 20 21 20 20 19 19 19 19 19 20 20 20 21 21 21 22 22 23 23 24 24 24
22 22 23 23 23 23 23 23 23 23 23 23 23 23 23 22 22 22 22 22 21 21 21 21 21 22 21 20 20 20 20 21 21 21 21 21 22 23 23 23 24 24 24 24
21 21 22 23 23 23 22 23 24 24 24 24 24 22 22 21 21 22 23 21 20 21 21 21 23 23 22 21 21 21 21 22 22 22 22 22 23 22 23 23 23 23 24 24
21 21 21 21 21 21 22 21 21 22 23 22 23 23 21 21 22 21 21 22 23 22 22 22 23 23 22 22 22 22 22 22 22 22 23 23 23 23 23 24 24 24 25 25
20 20 20 20 20 21 21 20 21 21 21 21 20 20 20 20 21 21 21 22 22 22 22 24 24 23 22 22 23 23 23 22 23 23 23 24 24 24 24 24 24 24 24 24
18 18 18 18 18 18 18 18 19 19 20 20 20 20 20 20 20 20 21 21 21 22 22 22 23 22 22 22 23 23 23 23 23 23 24 24 24 24 24 24 24 23 23 24
16 16 16 16 16 16 17 17 18 19 19 19 20 19 20 20 21 21 22 21 21 22 21 21 21 22 21 21 22 22 22 22 23 22 22 23 23 23 23 23 23 23 23 24

GFSNGP_con_lsi_108.txt.gz
Lid_Strength_Index
11 11 11 11 11 10 11 10 13 11 11 9 8 8 8 7 6 6 6 6 7 7 7 9 11 11 10 3 3 3 3 4 4 4 2 1 1 1 1 1 1 0 1 1
13 10 11 12 10 10 10 10 10 10 10 8 7 7 8 7 7 7 8 8 8 9 10 11 12 12 10 4 3 3 4 4 4 4 2 1 1 1 1 1 1 1 1 1
14 11 11 13 11 10 10 9 10 12 10 8 9 9 8 8 8 9 9 9 10 11 12 12 13 12 12 9 3 3 4 4 4 3 2 2 1 1 1 2 1 1 1 1
13 12 18 12 8 8 9 9 9 9 9 8 8 8 9 9 9 11 11 11 11 12 13 13 13 12 12 8 4 5 5 5 4 4 3 2 2 2 1 1 1 1 1 1
15 14 12 10 11 11 11 12 9 10 9 8 7 8 10 9 10 11 12 12 12 12 13 14 15 14 14 13 12 11 11 11 10 8 6 4 4 3 2 2 1 1 1 1
12 16 18 13 10 7 8 15 8 8 8 8 7 12 11 10 11 12 12 12 12 13 14 15 16 15 15 15 15 15 13 13 12 11 10 10 10 8 4 2 3 4 10 12
14 14 12 9 8 7 15 14 9 8 8 8 10 11 10 10 12 12 13 13 13 13 15 15 15 16 16 16 16 16 15 14 14 14 13 13 12 12 10 9 13 15 16 15
13 15 16 8 8 12 10 8 8 8 8 9 9 10 11 12 13 13 14 14 13 14 15 15 15 15 16 17 16 16 15 15 15 15 14 13 13 14 13 14 15 16 16 16
13 13 9 9 9 8 7 7 8 8 8 9 10 12 12 13 13 14 14 15 14 15 15 15 15 15 15 15 14 14 15 16 16 15 14 14 14 14 14 14 15 16 17 17
11 10 10 10 9 8 8 8 9 8 9 9 11 12 13 14 14 14 14 16 15 15 16 16 15 15 15 14 14 14 15 16 16 16 16 15 15 15 15 15 16 16 17 18
11 10 11 11 10 10 10 9 10 10 10 10 10 12 13 14 15 15 15 15 16 16 17 17 16 16 15 15 13 14 15 15 15 15 16 16 16 16 16 16 15 16 17 17
12 11 11 12 11 10 11 12 11 11 12 12 12 12 13 14 14 14 15 15 16 16 17 17 16 17 16 14 14 13 14 15 15 15 15 15 16 16 15 15 15 15 15 15
11 11 11 11 11 11 12 13 13 12 12 13 13 13 13 14 14 15 14 15 15 16 16 15 16 17 16 15 15 14 15 15 15 16 16 16 16 16 17 16 15 15 15 15
10 10 12 12 13 12 12 13 13 13 13 13 13 13 14 14 14 14 15 15 15 15 15 15 15 16 15 15 15 15 15 16 15 15 16 16 16 16 16 17 17 18 17 16
10 11 12 12 12 13 12 12 13 14 14 14 14 14 15 15 16 16 15 15 15 16 16 16 16 16 15 15 15 15 15 15 15 15 15 15 15 15 15 15 15 15 15 16
12 11 12 13 14 14 13 13 14 14 14 15 15 15 15 15 16 16 16 16 17 17 17 17 17 16 15 14 14 14 15 15 14 14 14 14 14 15 15 15 16 16 16 16
13 14 14 14 14 14 15 15 15 15 15 16 16 16 16 16 16 17 17 17 18 17 17 17 17 16 15 14 14 14 14 14 14 14 14 15 15 15 15 16 16 17 18 19
13 14 14 14 14 15 16 16 16 16 17 17 18 19 19 19 19 19 18 18 17 18 18 17 16 16 16 15 14 14 14 15 15 15 15 16 16 16 16 17 17 18 18 19
15 15 15 15 15 15 16 17 17 18 18 19 19 20 20 20 19 19 18 18 18 18 19 17 17 16 16 16 15 14 15 15 16 16 16 17 17 17 17 17 17 18 18 18
16 16 17 18 18 18 19 19 19 20 19 19 20 20 20 20 20 19 19 20 20 19 18 18 16 16 17 17 16 15 15 16 17 17 17 17 17 18 19 19 18 18 19 19
18 19 19 20 20 20 20 20 20 21 21 20 20 21 21 20 20 19 18 18 19 18 18 18 18 17 17 16 16 16 16 16 16 17 17 17 18 18 18 18 19 19 19 19
18 19 19 19 20 20 20 19 19 20 20 20 20 20 19 19 19 20 20 19 18 19 17 18 18 19 18 17 16 16 17 17 17 17 17 18 18 18 19 19 19 19 19 19
18 18 19 19 19 19 19 19 20 20 20 20 20 19 19 18 18 18 19 19 18 19 18 19 20 19 18 17 17 17 17 18 18 18 18 18 18 18 19 19 19 20 20 20
18 18 18 18 18 18 19 19 19 19 20 19 20 19 18 18 18 17 18 20 20 20 20 20 20 20 19 17 18 18 18 18 18 19 19 19 19 19 19 19 20 20 21 21
17 17 18 18 17 17 17 18 18 18 18 18 18 18 18 18 18 18 18 19 20 19 19 21 21 20 18 18 19 19 19 19 19 19 19 19 19 19 19 20 20 20 20 20
15 14 14 15 15 14 15 15 15 16 16 17 17 17 17 17 17 17 18 19 18 19 18 18 18 18 18 18 19 19 19 19 19 20 19 19 20 20 20 20 20 20 20 20
13 14 13 13 13 13 13 14 14 15 15 15 17 16 16 16 17 17 18 17 17 18 18 17 18 18 18 18 18 18 18 19 20 19 19 19 19 19 20 19 19 19 19 20

GFSNGP_con_lsi_111.txt.gz
Lid_Strength_Index
11 11 10 11 11 9 10 10 12 11 11 10 9 8 7 7 6 6 6 6 6 6 7 6 6 8 10 10 9 2 3 3 3 3 3 2 2 1 1 1 1 1 1 1
12 9 10 11 9 9 9 9 9 9 9 7 7 7 7 7 6 7 8 8 8 8 8 8 9 10 11 12 11 8 3 4 3 3 3 2 1 2 2 1 1 1 1 1
14 10 10 13 10 9 9 8 9 11 10 7 9 8 8 8 8 9 9 8 9 10 10 9 10 11 13 13 12 7 3 3 3 3 3 3 2 2 2 2 1 1 1 1
14 12 17 10 7 7 8 9 8 9 8 7 8 8 9 9 10 9 10 9 11 11 11 11 11 12 14 13 12 7 6 5 3 3 4 3 3 2 2 2 2 2 2 1
15 14 11 10 10 11 12 13 9 9 8 8 8 8 10 9 9 9 10 11 11 11 12 12 13 13 13 15 15 13 12 11 10 7 5 3 3 2 2 2 2 2 1 1
13 15 18 14 8 7 8 16 9 8 8 8 8 12 11 9 9 10 10 11 12 12 13 13 15 14 16 16 16 16 14 14 13 11 10 9 8 6 5 2 3 7 10 11
13 14 12 9 7 7 16 15 8 7 7 7 10 10 10 10 10 11 12 13 12 13 13 14 15 15 16 17 17 17 16 15 15 14 13 12 12 11 10 12 14 14 15 15
12 15 17 7 8 12 11 8 8 8 8 9 9 9 11 11 11 12 13 13 13 13 14 14 15 15 15 17 16 16 16 16 16 16 15 14 14 14 14 14 16 16 17 18
13 14 9 8 9 8 7 8 8 8 8 8 9 10 10 11 12 13 13 14 14 15 15 15 15 15 15 15 15 16 17 17 17 17 17 16 16 15 16 16 16 17 18 18
10 11 11 9 9 8 8 8 8 7 7 8 9 10 11 11 13 13 13 14 15 15 16 16 15 15 15 13 13 15 16 17 17 17 17 17 17 17 17 17 17 18 18 19
11 10 10 10 10 9 9 8 8 8 9 9 9 10 10 11 13 13 14 14 14 15 16 16 15 16 15 14 13 14 15 15 16 16 17 18 18 17 17 17 16 17 17 17
12 11 10 11 10 9 10 10 9 9 10 10 10 10 10 11 12 12 13 13 14 15 15 15 15 15 15 14 14 14 15 16 16 16 16 17 18 18 16 15 15 15 15 16
11 10 10 10 10 10 11 12 11 11 11 11 11 11 11 12 13 13 13 13 14 15 15 15 15 15 15 15 14 15 15 15 15 16 16 16 16 16 18 17 16 15 15 15
9 9 11 11 12 11 11 11 11 12 11 11 11 11 12 13 13 14 14 14 14 14 14 14 15 15 14 13 13 14 14 15 14 14 15 15 15 16 15 16 17 18 16 16
10 10 11 11 11 12 11 11 12 12 12 12 12 13 13 14 15 15 14 14 14 15 15 15 15 15 13 13 14 13 14 14 14 14 14 14 15 15 15 15 16 16 16 16
10 10 11 12 12 13 13 12 12 13 13 13 14 14 14 14 15 15 15 16 16 17 16 16 16 15 14 13 13 13 13 14 14 13 14 14 14 14 15 15 16 16 16 14
11 12 12 13 13 14 14 14 13 14 14 15 15 15 14 15 16 16 16 16 17 17 16 16 16 15 14 13 13 13 13 13 14 14 14 14 14 14 15 16 17 17 18 16
11 12 12 13 13 14 14 15 15 15 16 17 17 17 18 17 18 17 17 16 16 17 16 16 15 15 15 13 13 13 13 14 14 15 14 15 15 15 15 16 17 17 17 17
13 14 14 14 14 14 15 16 17 17 17 17 18 18 18 18 17 17 17 17 17 18 18 16 15 15 15 14 13 13 13 14 14 15 15 15 15 15 16 16 16 17 17 17
15 15 16 17 16 16 18 17 17 18 17 17 17 17 18 18 17 16 16 18 18 17 16 16 15 15 15 14 14 14 14 15 16 16 15 16 16 17 17 17 17 17 17 17
17 17 18 18 18 18 18 18 18 19 18 18 18 19 19 18 19 18 16 17 18 17 16 16 17 16 15 14 15 14 15 15 16 16 16 16 17 17 17 17 17 17 18 18
17 17 18 18 18 18 17 17 17 18 18 18 19 18 17 17 18 18 19 18 17 17 16 17 17 17 15 15 14 14 15 15 15 15 16 16 16 17 17 17 17 18 18 18
16 17 17 17 17 17 17 17 18 18 18 18 18 17 17 17 16 17 18 18 17 18 17 18 18 17 16 15 15 15 16 16 16 16 16 16 16 17 17 17 18 18 18 18
16 16 16 16 16 16 17 17 16 17 18 17 18 18 17 16 17 16 17 18 18 18 19 19 18 18 17 16 16 16 16 16 17 17 17 18 17 17 18 18 19 19 19 19
15 15 16 15 15 15 16 15 15 15 15 16 16 16 16 16 16 17 17 17 19 17 17 19 19 18 17 17 17 17 18 18 17 17 17 17 18 18 18 18 18 19 19 19
13 12 13 13 13 13 13 13 14 14 14 14 15 15 15 15 15 15 16 17 17 17 17 17 17 16 17 17 17 17 17 17 17 17 17 17 17 18 18 18 18 18 18 19
12 13 12 12 11 12 12 13 12 14 14 14 15 14 14 15 15 15 16 15 15 16 16 16 16 17 16 16 16 16 17 18 20 17 17 17 17 18 18 18 18 18 18 19

GFSNGP_con_lsi_114.txt.gz
Lid_Strength_Index
12 10 12 13 13 10 11 10 12 14 13 12 10 9 8 7 7 7 7 6 7 7 7 8 8 9 9 9 9 9 10 6 3 2 2 2 3 3 2 2 1 1 1 1
12 10 11 14 12 12 12 11 11 10 11 9 8 7 8 8 8 8 8 8 8 8 9 10 10 11 10 10 10 10 10 7 2 2 2 2 3 3 3 3 2 2 2 1
14 11 10 13 10 10 9 9 9 13 11 9 9 9 9 9 8 9 9 9 10 10 11 11 11 11 11 11 10 11 9 4 3 3 3 3 3 3 3 3 2 2 2 2
15 13 17 12 9 9 10 10 9 9 9 8 9 10 9 9 9 10 10 10 11 11 11 12 11 12 11 11 12 12 13 10 5 3 3 2 3 3 3 2 2 2 2 2
15 15 12 13 10 11 12 13 9 9 9 8 9 8 10 9 9 10 10 11 11 11 12 12 12 12 12 13 13 13 15 14 12 9 3 3 3 3 2 3 3 4 5 7
13 17 18 13 9 7 8 16 11 8 8 8 8 12 12 9 10 10 11 11 12 11 12 13 13 12 13 14 15 16 16 15 14 13 10 8 7 5 6 5 9 12 13 13
14 15 14 9 8 6 15 15 10 8 9 9 11 10 10 9 10 11 12 12 12 12 13 14 13 13 14 15 16 16 16 15 15 15 14 13 12 11 11 13 14 15 16 16
14 15 18 9 8 12 10 8 8 9 9 10 9 9 10 10 11 12 13 13 13 14 14 14 14 14 15 15 16 16 17 17 17 16 16 15 14 14 14 15 15 16 17 17
13 14 10 9 9 8 8 9 8 8 8 9 10 10 10 11 12 13 13 13 13 15 15 15 15 15 15 15 15 16 17 18 17 17 17 16 16 16 16 16 17 18 18 19
11 11 10 10 9 8 8 9 9 8 8 9 10 9 10 11 12 13 13 14 14 14 15 16 15 14 14 14 14 15 16 17 18 18 18 17 18 18 18 18 18 19 19 20
11 10 9 10 10 9 9 9 9 8 9 10 9 10 10 11 11 12 13 13 14 15 16 16 15 15 14 14 14 15 16 17 17 18 19 19 18 18 18 18 18 18 18 18
13 11 10 11 10 9 11 11 10 10 10 10 10 11 11 12 12 12 13 13 14 15 15 16 15 15 15 14 14 15 16 16 16 17 18 19 19 19 17 16 16 16 16 17
10 9 10 10 10 10 11 12 11 11 11 11 11 11 11 12 13 13 13 14 15 15 15 15 16 15 15 14 14 15 16 16 16 16 16 17 18 19 20 18 16 16 15 15
9 9 11 11 12 10 10 10 10 11 11 12 12 12 13 13 14 15 15 15 15 15 15 16 15 15 13 14 14 15 15 15 15 16 15 16 17 18 18 19 20 19 16 16
9 9 10 10 11 11 10 10 11 12 12 13 13 14 14 15 16 16 16 15 15 16 16 16 16 16 14 13 14 14 14 14 14 15 15 15 16 16 17 17 17 17 17 16
9 10 11 12 12 12 12 13 13 13 14 14 15 14 14 15 16 16 16 16 17 18 17 17 16 16 14 13 13 13 13 13 14 14 14 15 16 17 18 18 19 19 18 17
10 11 11 12 13 14 14 14 14 15 15 16 16 16 15 16 16 16 16 16 17 17 16 16 16 15 15 13 13 13 13 14 14 14 15 15 15 16 17 18 19 19 18 17
11 11 11 12 12 13 14 15 16 16 17 17 17 18 18 18 18 18 17 16 17 18 17 16 15 15 14 13 13 13 14 15 15 15 15 15 16 16 17 18 18 19 18 18
13 14 14 14 14 15 15 16 17 17 17 17 18 19 18 18 18 18 18 19 19 18 18 17 14 14 14 14 13 13 14 14 15 15 15 16 16 16 17 17 18 18 19 19
15 15 16 17 17 17 17 17 17 18 17 17 18 18 19 19 19 18 18 19 18 17 16 17 15 15 14 14 14 14 14 15 16 16 16 17 18 18 18 18 18 19 19 20
16 17 17 18 18 17 17 17 18 18 19 19 18 18 19 19 19 18 17 18 18 16 16 17 17 16 15 14 14 14 14 15 15 16 16 17 17 18 18 18 19 19 20 20
16 17 17 17 17 18 17 17 17 18 18 18 19 18 16 17 18 19 19 18 17 18 17 18 17 17 16 16 15 15 16 16 16 16 16 17 17 18 18 19 19 19 20 20
16 16 16 17 17 17 17 17 18 18 18 19 19 18 17 17 17 18 20 18 18 19 18 18 19 17 16 15 15 16 16 16 17 17 17 17 17 18 18 19 19 19 19 20
15 15 16 15 15 15 16 16 16 17 18 17 18 19 17 16 17 16 17 19 19 19 19 19 19 18 17 16 17 17 17 17 17 17 18 19 18 18 19 20 21 21 21 22
14 14 14 14 14 14 14 14 15 15 15 15 15 15 15 16 17 17 16 17 18 17 18 20 19 19 18 18 18 19 19 19 18 18 18 18 19 19 19 20 20 20 21 21
12 12 12 13 12 12 12 12 13 13 13 14 15 14 14 14 15 15 16 17 16 17 16 17 18 17 17 18 18 18 18 18 18 18 19 19 19 19 20 20 20 20 20 22
12 12 11 12 11 11 12 13 12 13 13 13 14 13 14 14 15 15 16 15 15 15 16 16 17 18 17 17 17 17 18 19 22 18 18 18 18 19 20 19 20 20 21 23

GFSNGP_con_lsi_117.txt.gz
Lid_Strength_Index
12 11 13 13 13 12 13 12 13 14 14 12 10 10 10 10 10 10 10 10 10 10 11 11 10 10 10 10 10 10 10 10 9 8 3 2 2 2 2 2 3 3 2 2
14 11 11 13 12 12 12 12 12 12 14 9 8 9 11 11 11 12 10 10 10 10 10 11 11 12 11 11 11 10 10 10 10 7 2 2 2 2 3 3 3 3 3 2
16 12 12 17 14 13 12 12 11 15 12 9 11 11 12 11 12 12 11 11 11 11 11 12 12 11 12 11 11 11 11 11 11 11 2 2 2 2 2 3 3 4 3 3
16 14 20 13 9 10 12 11 10 10 10 10 11 11 11 11 12 12 11 11 11 12 12 12 12 12 11 12 12 12 13 12 12 12 8 2 2 2 3 3 3 3 4 2
17 17 14 12 11 11 13 13 11 10 9 10 11 11 12 10 10 11 12 11 11 11 12 12 12 12 12 13 13 14 14 13 14 13 12 3 3 3 3 3 3 6 5 6
15 18 20 13 11 8 9 15 10 10 11 10 9 12 13 10 11 12 12 12 12 12 12 13 13 12 12 13 14 15 15 14 14 14 13 12 5 3 3 7 11 12 14 14
16 17 15 11 9 8 15 15 9 10 11 11 12 12 10 10 11 12 12 13 13 12 14 14 13 13 14 14 15 15 15 15 15 15 14 14 12 8 10 13 14 16 17 16
15 16 18 9 10 13 11 9 9 9 9 10 10 10 11 11 12 12 13 13 13 14 14 14 14 14 15 15 14 15 16 17 17 17 16 15 15 14 14 15 16 17 18 18
13 14 10 9 10 9 8 10 10 9 9 9 10 11 11 12 12 13 13 14 13 14 15 15 15 15 16 14 14 15 16 18 18 18 17 16 16 16 16 16 16 17 18 19
11 11 11 11 10 9 9 9 9 9 10 9 10 11 11 12 12 13 13 14 14 14 15 16 15 15 14 14 14 15 16 17 18 19 18 18 17 17 17 17 18 18 19 20
11 11 10 11 10 10 10 10 10 9 10 11 11 11 12 13 13 13 13 14 14 15 16 16 15 15 14 14 14 15 15 15 17 18 19 18 18 18 18 17 17 19 19 19
13 11 10 11 10 10 11 11 11 11 11 11 11 12 12 13 13 13 14 14 15 16 16 16 16 15 15 14 15 15 15 16 16 17 18 19 19 19 16 16 16 15 16 17
10 9 10 10 10 10 11 11 11 11 11 12 12 12 13 14 15 15 15 15 16 17 17 17 17 16 15 14 14 15 16 15 15 17 18 18 19 19 20 18 16 16 15 16
8 9 11 11 12 10 10 9 10 11 12 13 13 13 14 15 16 16 17 16 16 16 16 17 17 17 14 14 14 14 15 15 16 16 16 17 18 19 19 19 20 19 17 17
10 10 11 10 11 12 11 11 12 13 14 14 14 15 15 16 17 17 17 16 16 17 17 17 17 17 15 13 13 14 14 15 15 15 16 17 18 19 19 19 18 19 19 19
9 9 10 12 12 13 13 13 14 15 15 16 16 16 16 16 16 17 17 17 18 18 17 18 17 16 15 13 14 14 14 14 15 15 16 17 18 18 19 19 20 20 20 20
11 13 13 13 13 14 15 15 16 16 16 16 17 17 16 17 17 18 17 18 19 20 18 17 17 16 15 14 15 15 15 15 15 15 16 17 18 18 19 19 19 20 20 20
14 15 15 14 14 15 16 16 16 16 17 17 17 19 19 19 19 19 20 20 21 21 19 18 16 16 15 14 14 15 15 15 15 16 16 17 17 17 18 19 19 20 20 20
15 16 16 16 16 16 16 17 17 17 17 17 20 22 22 21 20 23 25 22 22 22 20 19 16 17 17 15 14 15 15 16 17 17 17 17 17 18 19 19 20 21 21 21
16 17 17 18 18 18 19 20 20 21 20 21 22 22 21 21 20 22 25 23 21 19 20 19 18 16 15 15 15 15 16 17 17 18 18 19 19 19 19 20 20 21 22 22
19 19 20 19 20 21 22 23 23 24 25 24 24 23 23 23 22 21 22 22 21 20 19 18 18 17 16 16 16 16 18 18 18 19 19 20 20 20 21 21 22 23 23 23
20 20 21 20 20 20 20 22 22 22 22 22 22 20 20 21 22 22 23 21 20 20 20 19 18 18 17 17 17 18 18 18 18 18 19 20 21 22 22 24 24 24 24 25
20 19 19 21 22 22 22 22 24 24 25 26 25 23 20 21 20 21 23 20 19 20 19 20 20 19 20 18 19 20 20 21 20 21 21 21 21 22 22 22 22 23 24 23
18 19 20 19 18 16 19 21 20 21 23 22 23 24 19 19 19 18 19 20 21 24 22 19 21 20 22 21 22 22 22 20 21 22 22 24 24 24 25 26 26 28 28 27
19 20 19 18 17 19 19 18 17 17 17 17 18 16 16 17 22 21 22 22 20 20 23 23 21 23 22 21 22 23 22 23 22 22 21 21 22 25 25 24 25 24 23 24
18 15 18 17 17 15 14 13 16 17 14 17 18 21 21 20 17 17 19 20 21 20 22 26 23 20 21 22 23 24 24 23 23 23 24 24 25 26 25 24 25 27 30 32
17 16 15 14 13 15 15 15 15 16 18 19 18 20 18 20 19 17 19 19 20 20 21 24 26 24 23 24 22 21 25 25 24 22 23 23 25 26 25 26 28 30 31 30

GFSNGP_con_lsi_120.txt.gz
Lid_Strength_Index
12 11 13 13 14 13 14 13 15 14 15 12 12 12 12 13 12 12 12 12 13 13 13 13 13 13 12 11 11 10 10 10 10 10 9 8 6 3 1 2 1 1 2 3
14 11 13 14 13 12 13 13 13 13 14 10 10 11 12 13 13 13 13 13 13 13 13 13 13 13 13 12 12 11 11 11 11 10 10 9 8 3 2 2 2 2 3 3
16 12 13 16 14 13 12 12 12 15 12 11 12 13 13 13 13 14 14 14 13 13 13 13 13 12 12 12 12 13 13 12 12 12 11 11 10 2 2 2 2 2 3 3
16 14 20 14 11 11 12 12 12 11 12 12 13 13 12 13 14 14 14 13 13 13 13 13 12 12 12 12 12 13 13 13 13 12 12 11 11 7 2 2 2 3 3 4
17 17 15 13 12 12 13 13 11 11 11 11 12 11 13 12 12 13 13 13 13 12 13 13 13 13 13 13 13 14 14 14 14 14 13 12 12 11 2 2 3 3 4 5
15 18 20 13 12 10 10 16 10 11 11 11 10 14 14 12 12 13 13 13 13 13 13 14 14 14 14 14 14 15 15 15 15 14 14 14 14 13 2 4 8 11 14 12
16 17 14 12 11 9 15 15 10 10 10 11 13 12 12 12 12 13 13 14 13 13 14 14 14 14 14 14 15 14 14 15 15 15 15 14 14 14 11 12 13 15 16 16
15 16 18 10 11 14 11 10 10 9 10 11 11 11 12 13 13 14 14 14 13 15 15 14 14 14 15 15 14 14 15 16 17 16 16 15 15 15 15 14 16 16 17 17
13 14 10 10 10 9 9 10 11 11 10 10 11 12 12 13 14 14 14 15 15 14 15 14 14 14 15 14 14 14 16 17 17 17 16 16 16 16 17 16 17 16 17 19
11 11 11 11 10 9 9 10 10 10 11 10 11 11 12 13 14 14 15 16 16 16 16 16 14 14 14 14 14 14 15 17 17 18 18 17 17 17 17 17 18 18 19 19
12 11 10 11 10 11 10 10 10 10 10 11 11 13 13 14 15 15 15 16 17 17 17 17 15 15 14 14 14 14 15 16 16 17 18 18 18 17 17 17 17 18 17 18
17 13 11 12 10 10 12 11 11 11 12 12 12 13 14 15 15 15 16 16 17 17 17 17 16 15 14 14 15 15 15 16 17 17 17 18 18 18 16 16 16 16 16 17
10 10 10 10 10 9 11 11 11 12 12 13 13 13 15 16 16 16 16 16 17 17 17 17 17 17 15 14 14 14 15 16 16 16 17 17 18 19 20 18 17 16 16 16
9 9 12 11 12 10 10 10 11 12 12 13 13 14 15 16 16 17 17 17 17 17 17 17 16 17 16 14 15 14 14 15 16 17 18 18 19 19 18 20 21 20 18 17
10 10 11 11 11 12 11 11 13 14 14 15 14 15 15 17 17 18 17 17 17 17 17 17 17 17 15 14 15 15 14 15 16 17 18 18 18 19 19 19 20 20 20 20
9 10 11 12 13 13 14 14 15 15 15 16 16 15 16 16 16 17 17 18 19 20 19 19 17 17 15 15 16 16 15 15 16 16 17 18 18 19 19 20 21 21 22 22
13 14 14 13 15 15 15 15 15 16 16 17 17 16 16 17 17 18 18 18 19 20 19 19 18 16 16 15 16 16 16 16 17 16 17 17 18 19 19 20 21 21 22 21
14 15 14 14 15 16 16 16 16 16 17 17 17 18 19 19 20 20 20 20 20 21 21 20 18 17 16 15 16 15 16 16 16 16 17 17 18 18 19 19 20 21 22 22
16 17 16 16 16 16 17 17 17 17 18 19 20 21 21 21 22 24 23 21 21 22 21 19 17 17 17 16 15 16 17 18 17 17 17 18 18 19 20 20 21 22 22 23
17 17 17 18 18 18 20 22 21 22 23 23 23 22 23 22 22 25 25 22 21 21 19 19 18 17 16 16 16 16 17 18 18 18 19 19 20 20 21 21 22 22 23 24
20 20 20 20 21 22 24 24 23 21 21 21 23 23 23 24 22 22 22 22 21 21 19 18 18 17 17 17 17 18 18 18 19 20 21 22 21 21 22 22 23 23 24 24
23 22 24 23 21 24 24 24 23 25 26 25 24 24 24 24 24 24 24 22 19 20 18 18 18 19 18 18 18 19 19 19 20 20 21 22 23 23 24 23 24 25 26 28
21 21 21 23 22 23 24 23 26 26 26 26 25 23 23 22 22 24 24 20 19 20 19 19 20 20 21 21 21 21 21 21 21 21 22 23 25 26 25 26 26 26 27 28
21 21 22 21 21 18 20 22 21 21 24 23 25 25 19 23 23 18 18 20 23 24 23 21 21 21 22 22 22 22 22 22 22 23 23 23 26 26 27 28 29 29 28 29
21 22 22 21 19 20 20 19 19 19 18 17 18 17 16 17 23 21 23 23 20 22 24 23 21 23 23 24 24 24 24 24 24 23 24 25 26 25 25 27 29 28 28 30
20 19 19 19 17 18 17 15 18 17 15 19 20 24 24 22 19 18 20 20 21 22 24 28 26 25 25 25 26 26 24 23 23 24 25 27 28 28 28 29 29 29 31 34
19 19 18 17 16 16 17 15 17 19 18 19 20 22 22 23 22 20 22 24 24 21 25 27 27 25 25 24 24 26 27 27 26 27 29 30 30 31 31 31 32 33 34 33

GFSNGP_con_lsi_123.txt.gz
Lid_Strength_Index
13 12 12 14 14 13 14 14 17 15 15 14 14 14 15 14 14 14 14 14 14 14 14 14 14 14 14 13 13 13 13 13 12 12 12 11 11 10 8 6 2 1 2 1
14 11 12 15 13 13 13 13 13 13 14 12 12 12 13 13 14 14 15 14 14 14 14 14 14 14 14 13 13 13 13 13 13 12 11 12 11 10 8 7 3 2 2 2
16 12 14 16 15 13 13 13 12 15 13 12 14 14 14 14 14 15 15 15 14 15 15 15 15 14 14 13 13 13 13 13 13 13 12 11 11 10 9 9 3 2 2 2
16 14 20 13 11 11 13 13 12 12 12 13 14 13 13 13 14 15 15 15 15 15 15 14 14 14 13 13 13 13 14 14 13 14 13 13 12 11 10 9 5 2 2 2
17 17 15 13 13 13 13 14 12 12 11 11 12 11 14 13 14 15 15 15 15 15 15 14 14 14 14 14 14 14 14 15 15 14 14 13 12 12 11 11 7 2 2 2
15 18 20 15 12 10 10 16 11 11 12 12 12 14 15 13 13 14 14 14 15 15 14 14 15 14 15 14 15 15 15 15 15 15 15 14 14 13 12 11 6 9 12 9
15 17 14 12 11 10 16 16 11 10 11 12 13 13 13 12 14 14 14 15 14 15 15 15 14 14 15 15 15 14 15 16 16 15 15 15 14 13 14 14 13 14 14 14
15 17 19 11 11 14 12 10 11 12 10 11 11 11 12 13 14 14 15 16 15 16 15 14 14 14 15 15 14 14 14 16 16 16 15 15 15 15 15 15 15 16 15 15
13 14 11 10 10 9 9 10 10 11 11 10 11 12 12 13 14 15 15 17 17 17 17 16 14 14 15 15 14 14 16 16 16 16 15 16 16 16 16 16 16 17 17 16
12 11 11 11 10 10 10 11 10 10 11 10 12 12 13 14 15 15 16 18 18 18 17 17 15 14 14 14 14 14 16 17 17 17 17 16 16 16 16 17 17 17 18 18
12 11 11 11 11 11 10 10 10 11 12 11 12 13 14 15 15 16 17 17 18 18 18 17 16 15 14 14 14 14 15 16 17 16 17 17 17 17 17 17 17 18 18 18
19 11 11 11 10 10 12 11 11 11 12 12 13 14 15 16 16 16 17 17 17 17 17 17 16 15 15 14 14 15 15 16 17 17 17 17 18 18 17 17 17 17 16 18
10 10 11 11 10 9 9 10 11 12 12 13 14 14 15 16 16 16 17 17 17 18 18 18 18 17 15 14 15 15 16 16 17 17 18 18 18 18 20 19 18 18 17 17
9 9 12 11 12 11 10 11 11 12 13 14 14 14 15 16 16 17 17 17 17 17 18 18 17 17 16 15 15 15 15 17 18 18 18 19 19 19 19 20 22 22 19 19
10 11 12 12 12 12 11 12 14 15 14 15 14 15 15 16 17 17 17 17 17 18 18 18 18 17 16 15 16 16 16 17 17 18 18 18 19 19 20 21 21 22 22 21
10 11 12 13 15 15 14 14 15 15 16 16 16 15 15 16 16 17 18 18 19 20 19 20 19 17 16 16 17 17 17 17 17 17 18 18 18 20 21 21 22 23 23 23
13 14 13 15 15 15 16 15 16 16 16 16 17 16 16 17 18 19 19 19 19 20 19 20 20 18 17 17 17 17 18 17 18 17 18 18 19 19 20 21 22 23 24 23
14 14 13 14 15 16 16 16 16 16 17 17 18 18 20 21 20 21 22 20 21 21 20 20 19 17 17 16 16 17 18 18 18 18 18 19 19 20 21 21 22 22 23 23
15 15 15 15 15 16 17 17 17 18 19 20 21 22 21 22 24 26 24 22 22 23 21 19 17 17 17 17 16 17 18 19 19 19 19 20 20 20 21 22 23 23 23 24
17 17 17 18 19 19 21 22 23 23 24 24 24 22 21 23 24 26 27 25 24 21 19 18 18 17 17 17 17 17 18 19 19 20 21 21 22 23 22 23 23 24 24 25
21 21 21 21 24 26 27 27 25 25 27 27 24 27 28 28 26 25 24 22 21 19 18 18 18 18 17 17 17 18 19 19 21 22 22 23 23 23 24 24 24 25 26 26
23 23 26 25 23 25 26 26 25 27 27 27 28 28 27 25 27 25 27 24 20 21 19 19 19 20 20 19 19 19 19 19 20 21 22 23 24 24 25 25 25 26 27 27
22 22 23 24 23 24 25 24 27 27 26 28 26 26 24 23 23 24 24 19 19 20 19 20 23 23 23 22 22 22 22 22 22 22 23 24 24 25 26 26 27 28 28 27
22 22 23 23 23 19 21 23 23 23 25 24 26 26 21 24 24 18 18 22 24 25 24 23 24 23 25 23 23 24 24 24 24 24 23 25 26 26 26 27 27 28 29 28
21 23 23 23 21 22 22 22 21 21 20 19 19 17 17 18 22 21 23 23 21 22 24 25 25 25 27 27 27 26 26 26 26 26 26 27 27 27 27 27 28 29 30 31
22 20 21 20 19 19 19 18 20 18 17 20 21 26 25 24 21 21 23 23 22 22 25 28 29 28 28 28 29 28 28 26 27 28 29 29 27 27 27 28 30 31 32 34
22 20 20 20 18 18 18 17 19 19 20 22 22 24 24 25 25 23 26 27 28 27 28 29 28 27 27 28 28 28 28 28 29 29 32 31 30 30 30 30 31 33 33 32